Cardiff-Wales, United Kingdom

5:06 AM BST on August 21, 2017 (GMT +0100)
Cardiff

Weather History for EGFF - August, 2013

Change the Weather History Date:

Tuesday, August 27, 2013

  Actual Average Record
Temperature  
Mean Temperature 62 °F -  
Max Temperature 68 °F 64 °F 69 °F (2003)
Min Temperature 55 °F 51 °F 48 °F (1998)
Degree Days  
Heating Degree Days 4    
Growing Degree Days 12 (Base 50)    
Moisture  
Dew Point 57 °F    
Average Humidity 82    
Maximum Humidity 100    
Minimum Humidity 68    
Precipitation  
Precipitation 0.00 in 0.12 in - ()
Sea Level Pressure  
Sea Level Pressure 30.09 in    
Wind  
Wind Speed 5 mph ()    
Max Wind Speed 10 mph    
Max Gust Speed -    
Visibility 5.7 miles    
Events      
Averages and records for this station are not official NWS values.
T = Trace of Precipitation, MM = Missing Value Source: Averaged Metar Reports

Daily Weather History Graph

Daily Weather History Graph

Search for Another Location

Airport or City:

Trip Planner

Search our weather history database for the weather conditions in past years. The results will help you decide how hot, cold, wet, or windy it might be!

Date:

Astronomy

Aug. 27, 2013 Rise Set
Actual Time 6:18 AM BST 8:10 PM BST
Civil Twilight 5:42 AM BST 8:45 PM BST
Nautical Twilight 4:58 AM BST 9:29 PM BST
Astronomical Twilight 4:09 AM BST 10:18 PM BST
Moon 11:01 PM BST (8/27) 1:54 PM BST (8/27)
Length of Visible Light 15h 02m
Length of Day
13h 51m
Waning Gibbous, 59% of the Moon is Illuminated
Aug 27
Waning Gibbous
Aug 28
Last Quarter
Sep 5
New
Sep 12
First Quarter
Sep 19
Full

Hourly Weather History & Observations

Time (BST) Temp. Dew Point Humidity Pressure Visibility Wind Dir Wind Speed Gust Speed Precip Events Conditions
12:20 AM 57.2 °F 57.2 °F 100% 30.09 in 3.1 mi NW 8.1 mph - N/A   Mist
12:50 AM 59.0 °F 57.2 °F 94% 30.09 in 3.1 mi North 4.6 mph - N/A   Haze
1:20 AM 59.0 °F 55.4 °F 88% 30.09 in 3.1 mi NNW 5.8 mph - N/A   Haze
1:50 AM 57.2 °F 55.4 °F 94% 30.09 in 3.1 mi North 3.5 mph - N/A   Haze
2:20 AM 57.2 °F 55.4 °F 94% 30.06 in 4.3 mi NNE 3.5 mph - N/A   Unknown
2:50 AM 59.0 °F 55.4 °F 88% 30.06 in - NNE 3.5 mph - N/A   Clear
3:20 AM 55.4 °F 53.6 °F 94% 30.06 in 4.3 mi North 4.6 mph - N/A   Unknown
3:50 AM 55.4 °F 53.6 °F 94% 30.06 in - North 5.8 mph - N/A   Clear
4:20 AM 55.4 °F 53.6 °F 94% 30.06 in - North 5.8 mph - N/A   Clear
4:50 AM 57.2 °F 53.6 °F 88% 30.06 in - North 5.8 mph - N/A   Clear
5:20 AM 55.4 °F 51.8 °F 88% 30.06 in - North 4.6 mph - N/A   Clear
5:50 AM 55.4 °F 53.6 °F 94% 30.06 in - North 3.5 mph - N/A   Clear
6:20 AM 59.0 °F 53.6 °F 82% 30.09 in - ENE 4.6 mph - N/A   Clear
6:50 AM 55.4 °F 51.8 °F 88% 30.09 in - ENE 6.9 mph - N/A   Clear
7:20 AM 57.2 °F 51.8 °F 82% 30.09 in 6.2 mi NE 5.8 mph - N/A   Partly Cloudy
7:50 AM 57.2 °F 53.6 °F 88% 30.09 in 6.2 mi ENE 5.8 mph - N/A   Scattered Clouds
8:20 AM 60.8 °F 53.6 °F 77% 30.09 in 6.2 mi ENE 4.6 mph - N/A   Unknown
8:50 AM 60.8 °F 53.6 °F 77% 30.09 in 6.2 mi NE 5.8 mph - N/A   Scattered Clouds
9:20 AM 62.6 °F 53.6 °F 72% 30.09 in 6.2 mi NE 4.6 mph - N/A   Partly Cloudy
9:50 AM 64.4 °F 55.4 °F 73% 30.09 in 6.2 mi Variable 3.5 mph - N/A   Partly Cloudy
10:20 AM 66.2 °F 55.4 °F 68% 30.09 in 6.2 mi Calm Calm - N/A   Partly Cloudy
10:50 AM 66.2 °F 55.4 °F 68% 30.09 in 6.2 mi South 4.6 mph - N/A   Partly Cloudy
11:20 AM 66.2 °F 57.2 °F 73% 30.09 in 6.2 mi South 5.8 mph - N/A   Partly Cloudy
11:50 AM 66.2 °F 57.2 °F 73% 30.09 in 6.2 mi SE 6.9 mph - N/A   Partly Cloudy
12:20 PM 68.0 °F 57.2 °F 68% 30.09 in 6.2 mi SE 4.6 mph - N/A   Unknown
12:50 PM 68.0 °F 57.2 °F 68% 30.09 in 6.2 mi South 4.6 mph - N/A   Partly Cloudy
1:20 PM 68.0 °F 57.2 °F 68% 30.09 in - SW 4.6 mph - N/A   Clear
1:50 PM 68.0 °F 57.2 °F 68% 30.09 in 6.2 mi West 10.4 mph - N/A   Partly Cloudy
2:20 PM 68.0 °F 59.0 °F 73% 30.09 in 6.2 mi WNW 8.1 mph - N/A   Partly Cloudy
2:50 PM 68.0 °F 59.0 °F 73% 30.09 in 6.2 mi West 5.8 mph - N/A   Overcast
3:20 PM 68.0 °F 59.0 °F 73% 30.09 in 6.2 mi West 4.6 mph - N/A   Mostly Cloudy
3:50 PM 66.2 °F 60.8 °F 83% 30.09 in 6.2 mi WNW 3.5 mph - N/A   Partly Cloudy
4:20 PM 68.0 °F 60.8 °F 78% 30.09 in 6.2 mi West 4.6 mph - N/A   Partly Cloudy
4:50 PM 68.0 °F 60.8 °F 78% 30.09 in 6.2 mi West 6.9 mph - N/A   Partly Cloudy
5:20 PM 68.0 °F 60.8 °F 78% 30.09 in 6.2 mi West 8.1 mph - N/A   Partly Cloudy
5:50 PM 68.0 °F 60.8 °F 78% 30.09 in 6.2 mi West 8.1 mph - N/A   Partly Cloudy
6:20 PM 66.2 °F 60.8 °F 83% 30.09 in 6.2 mi West 6.9 mph - N/A   Partly Cloudy
6:50 PM 66.2 °F 60.8 °F 83% 30.09 in 5.6 mi West 8.1 mph - N/A   Scattered Clouds
7:20 PM 64.4 °F 60.8 °F 88% 30.09 in 6.2 mi West 6.9 mph - N/A   Partly Cloudy
7:50 PM 64.4 °F 60.8 °F 88% 30.09 in 6.2 mi West 5.8 mph - N/A   Partly Cloudy
8:20 PM 64.4 °F 60.8 °F 88% 30.12 in 6.2 mi NNW 4.6 mph - N/A   Unknown
8:50 PM 62.6 °F 59.0 °F 88% 30.12 in 6.2 mi North 6.9 mph - N/A   Partly Cloudy
9:20 PM 62.6 °F 59.0 °F 88% 30.12 in 6.2 mi North 8.1 mph - N/A   Unknown
9:50 PM 62.6 °F 57.2 °F 82% 30.15 in 6.2 mi North 9.2 mph - N/A   Partly Cloudy
10:20 PM 62.6 °F 57.2 °F 82% 30.15 in - North 8.1 mph - N/A   Clear
10:50 PM 62.6 °F 57.2 °F 82% 30.15 in - NNE 6.9 mph - N/A   Clear
11:20 PM 60.8 °F 57.2 °F 88% 30.15 in 6.2 mi NNE 6.9 mph - N/A   Unknown
11:50 PM 60.8 °F 57.2 °F 88% 30.18 in - West 4.6 mph - N/A   Clear